[[{"header":{"parameterUnit":"m.s-1","parameterCategory":1,"la1":30.2991,"la2":30.254,"lo1":-89.0895,"lo2":-89.0444,"dy":0.0017,"dx":0.0017,"nx":28,"ny":28,"refTime":"2025-09-19T03:00:00:Z","depth":0,"parameterNumber":2,"parameterNumberName":"U-component_of_WINDS"},"data":[0,0,0,0,0,0,0,0,0,0,0,0,0,0,0,0,0,0,0,0,0,0,0,0,0,0,0,0,0,0,0,0,0,0,0,0,0,0,0,0,0,0,0,0,0,0,0,0,0,0,0,0,0,0,0,0,0,0,-0.3873,-0.3873,0,-0.3801,-0.38,-0.3799,-0.3839,-0.3841,-0.3843,-0.3844,-0.3766,-0.3762,-0.3759,0,0,0,0,0,0,0,0,0,0,0,0,0,-0.4043,-0.4039,-0.3873,-0.3873,-0.3872,-0.3801,-0.38,-0.3799,-0.3838,-0.3841,-0.3843,-0.3845,-0.3768,-0.3763,-0.3758,0,0,0,0,0,0,0,0,0,0,0,0,0,-0.3969,-0.4038,-0.3874,-0.3883,-0.3883,-0.3801,-0.38,-0.3799,-0.3838,-0.3841,-0.3844,-0.3847,-0.3769,-0.3763,-0.3758,-0.3662,0,0,-0.374,-0.3737,0,0,0,0,0,0,0,0,-0.3973,-0.3963,-0.3882,-0.3882,-0.3882,-0.3832,-0.3831,-0.3753,-0.3837,-0.3855,-0.3845,-0.3848,-0.3785,-0.3778,-0.3758,-0.3658,-0.3655,-0.3739,-0.3735,-0.3733,-0.3731,0,0,0,0,0,0,0,-0.3978,-0.3966,-0.3845,-0.3881,-0.3881,-0.3889,-0.3882,-0.3816,-0.3804,-0.3853,-0.3856,-0.3847,-0.3786,-0.3764,-0.3757,-0.3653,-0.3739,-0.3734,-0.373,-0.3728,-0.347,-0.3467,0,0,0,0,0,0,-0.3983,-0.397,-0.3847,-0.3842,-0.3936,-0.3884,-0.3876,-0.3845,-0.3805,-0.3802,-0.3845,-0.3849,-0.3772,-0.3763,-0.3754,-0.3638,-0.3733,-0.3727,-0.3724,-0.3474,-0.347,-0.3466,0,0,0,0,0,0,-0.3987,-0.3972,-0.385,-0.3907,-0.3892,-0.3878,-0.3843,-0.3842,-0.382,-0.3799,-0.3796,-0.3824,-0.3774,-0.3762,-0.3684,-0.3636,-0.3725,-0.3719,-0.3478,-0.3472,-0.3468,-0.3406,0,0,0,0,0,0,-0.3992,-0.3973,-0.3937,-0.3906,-0.3889,-0.3782,-0.384,-0.3838,-0.381,-0.3815,-0.3779,-0.3776,-0.3776,-0.3693,-0.3679,-0.363,-0.3715,-0.3482,-0.3475,-0.347,-0.3412,-0.34,-0.3389,0,0,0,0,0,-0.3998,-0.3922,-0.3935,-0.392,-0.3844,-0.3779,-0.3769,-0.3772,-0.3806,-0.3769,-0.3756,-0.3777,-0.3644,-0.3685,-0.3669,-0.3617,-0.3485,-0.3477,-0.347,-0.3418,-0.3402,-0.3389,0,0,0,0,0,0,-0.3945,-0.3918,-0.3932,-0.3844,-0.3814,-0.3786,-0.3739,-0.3756,-0.3714,-0.372,-0.3725,-0.3716,-0.3635,-0.3619,-0.3664,-0.3522,-0.357,-0.3559,-0.3535,-0.352,-0.3509,-0.3513,-0.371,0,0,0,0,0,-0.3924,-0.3875,-0.3853,-0.3778,-0.3762,-0.3753,-0.3725,-0.373,-0.3699,-0.3685,-0.3666,-0.3634,-0.3585,-0.3552,-0.3506,-0.3411,-0.3403,-0.3368,-0.3356,-0.3347,-0.3336,-0.3284,-0.3268,-0.3442,-0.3442,-0.3442,0,0,-0.3879,-0.3858,-0.3826,-0.3767,-0.3744,-0.3692,-0.3742,-0.3685,-0.3646,-0.3676,-0.3602,-0.3587,-0.355,-0.3464,-0.3424,-0.3447,-0.3287,-0.3337,-0.333,-0.3324,-0.3275,-0.3259,-0.3244,-0.3437,-0.3438,-0.3438,0,0,-0.3769,-0.3749,-0.3683,-0.366,-0.3625,-0.362,-0.3605,-0.3575,-0.3566,-0.3492,-0.3513,-0.3467,-0.3383,-0.3356,-0.3331,-0.3213,-0.3231,-0.3198,-0.3136,-0.3085,-0.3071,-0.3059,-0.3016,-0.3,-0.3189,-0.3189,-0.3188,0,-0.3716,-0.364,-0.3647,-0.3589,-0.3561,-0.3589,-0.3522,-0.3499,-0.345,-0.343,-0.3457,-0.3353,-0.333,-0.3237,-0.3209,-0.3188,-0.3169,-0.3201,-0.3073,-0.3061,-0.305,-0.3008,-0.2992,-0.3185,-0.3185,-0.3186,-0.3186,0,-0.3576,-0.3523,-0.3474,-0.3428,-0.3396,-0.3333,-0.333,-0.3296,-0.3305,-0.3297,-0.3221,-0.3195,-0.3144,-0.3123,-0.313,-0.3031,-0.3046,-0.3073,-0.3121,-0.3029,-0.299,-0.2974,-0.3179,-0.318,-0.3182,-0.3183,0,0,-0.3429,-0.339,-0.3371,-0.3351,-0.3315,-0.3273,-0.3212,-0.3164,-0.3134,-0.3101,-0.3048,-0.2977,-0.3002,-0.2974,-0.2979,-0.2935,-0.2842,-0.2967,-0.2967,-0.2943,-0.273,-0.2708,-0.269,-0.2855,-0.2852,-0.2849,-0.2732,0,-0.3316,-0.3209,-0.3215,-0.3115,-0.3065,-0.3091,-0.3038,-0.301,-0.3001,-0.2957,-0.2948,-0.2896,-0.2934,-0.2917,-0.2875,-0.2862,-0.2798,-0.2871,-0.2804,-0.2802,-0.281,-0.2669,-0.2646,-0.2537,-0.2717,-0.2715,-0.2713,0,-0.3168,-0.3131,-0.3026,-0.2999,-0.2978,-0.293,-0.2886,-0.2845,-0.2813,-0.281,-0.278,-0.2792,-0.2729,-0.278,-0.2693,-0.2742,-0.2716,-0.2705,-0.2701,-0.2693,-0.275,-0.2656,-0.2502,-0.2485,-0.2689,-0.2691,-0.2693,0,-0.3069,-0.2993,-0.292,-0.2902,-0.2869,-0.2834,-0.2818,-0.2791,-0.2761,-0.2723,-0.2704,-0.2659,-0.2633,-0.2597,-0.2597,-0.2634,-0.2508,-0.256,-0.2502,-0.2502,-0.2472,-0.2474,-0.231,-0.2459,-0.2459,-0.2459,-0.246,0,-0.2941,-0.2875,-0.2876,-0.283,-0.2758,-0.2765,-0.2693,-0.268,-0.2656,-0.2608,-0.2629,-0.2583,-0.2586,-0.254,-0.254,-0.2467,-0.2456,-0.245,-0.245,-0.2447,-0.2448,-0.2428,-0.2435,-0.2455,-0.2456,-0.2457,-0.2458,0,-0.2816,-0.2815,-0.2737,-0.2712,-0.2705,-0.2652,-0.2631,-0.2588,-0.2582,-0.2521,-0.2508,-0.2498,-0.2445,-0.2442,-0.238,-0.238,-0.2291,-0.2301,-0.2302,-0.2303,-0.2245,-0.225,-0.2061,-0.2037,-0.2203,-0.2201,-0.22,0,-0.2733,-0.2684,-0.2655,-0.2625,-0.2608,-0.2559,-0.253,-0.2536,-0.2504,-0.2466,-0.2427,-0.2377,-0.2336,-0.2251,-0.2237,-0.219,-0.2198,-0.2135,-0.2191,-0.2189,-0.2195,-0.2197,-0.2191,-0.2123,-0.2122,-0.212,-0.2119,0,-0.2585,-0.2587,-0.2545,-0.2502,-0.2467,-0.2433,-0.2402,-0.2376,-0.2379,-0.2342,-0.2289,-0.2258,-0.2196,-0.2145,-0.21,-0.2083,-0.21,-0.2102,-0.2086,-0.2081,-0.2083,-0.2079,-0.227,-0.2106,-0.2107,-0.2108,-0.2109,-0.2109,-0.2478,-0.2435,-0.2408,-0.236,-0.2338,-0.2308,-0.2267,-0.2257,-0.2213,-0.2164,-0.217,-0.2111,-0.2081,-0.2023,-0.2002,-0.1956,-0.1977,-0.1954,-0.1948,-0.1941,-0.1934,-0.2093,-0.1947,-0.1948,-0.1948,-0.1949,-0.1949,0,-0.233,-0.2314,-0.227,-0.2227,-0.2189,-0.2212,-0.2178,-0.2145,-0.2093,-0.2065,-0.2025,-0.1964,-0.1915,-0.1899,-0.1852,-0.1817,-0.1824,-0.1804,-0.1806,-0.1801,-0.1919,-0.1937,-0.18,-0.18,-0.18,-0.18,-0.18,-0.18,-0.2248,-0.2176,-0.2175,-0.2092,-0.2077,-0.202,-0.1999,-0.1972,-0.195,-0.1881,-0.1841,-0.1832,-0.1808,-0.176,-0.1716,-0.1712,-0.1693,-0.1669,-0.1669,-0.1778,-0.1793,-0.1807,-0.1824,-0.1665,-0.1665,-0.1555,-0.1554,-0.1553]},{"header":{"parameterUnit":"m.s-1","parameterCategory":1,"la1":30.2991,"la2":30.254,"lo1":-89.0895,"lo2":-89.0444,"dy":0.0017,"dx":0.0017,"nx":28,"ny":28,"refTime":"2025-09-19T03:00:00:Z","depth":0,"parameterNumber":3,"parameterNumberName":"V-component_of_WINDS"},"data":[0,0,0,0,0,0,0,0,0,0,0,0,0,0,0,0,0,0,0,0,0,0,0,0,0,0,0,0,0,0,0,0,0,0,0,0,0,0,0,0,0,0,0,0,0,0,0,0,0,0,0,0,0,0,0,0,0,0,0.4826,0.4827,0,0.4911,0.4912,0.4913,0.4955,0.4955,0.4955,0.4955,0.5041,0.5043,0.5045,0,0,0,0,0,0,0,0,0,0,0,0,0,0.4695,0.4698,0.4826,0.4827,0.4828,0.4911,0.4912,0.4914,0.4955,0.4955,0.4955,0.4955,0.504,0.5042,0.5045,0,0,0,0,0,0,0,0,0,0,0,0,0,0.4763,0.4698,0.4826,0.4859,0.4863,0.4911,0.4912,0.4914,0.4955,0.4955,0.4955,0.4955,0.5039,0.5042,0.5046,0.5067,0,0,0.5056,0.5058,0,0,0,0,0,0,0,0,0.4759,0.4768,0.4853,0.4857,0.4861,0.4922,0.4898,0.4965,0.4955,0.492,0.4955,0.4955,0.5001,0.5008,0.5024,0.5071,0.5075,0.5056,0.5059,0.506,0.5061,0,0,0,0,0,0,0,0.4755,0.4765,0.486,0.4854,0.4859,0.4868,0.4878,0.4911,0.4959,0.4923,0.4926,0.4936,0.5003,0.502,0.5026,0.5076,0.5056,0.5059,0.5062,0.5063,0.5141,0.5141,0,0,0,0,0,0,0.4745,0.4761,0.4857,0.4863,0.4809,0.487,0.4881,0.4903,0.4959,0.4968,0.4935,0.4937,0.5014,0.5022,0.5029,0.5056,0.506,0.5063,0.5065,0.5141,0.5141,0.5141,0,0,0,0,0,0,0.4742,0.4753,0.4854,0.4812,0.4826,0.4873,0.4897,0.4904,0.4921,0.4969,0.4977,0.4944,0.5015,0.5024,0.5057,0.5059,0.5065,0.5068,0.5141,0.5141,0.5141,0.511,0,0,0,0,0,0,0.4738,0.4752,0.4762,0.4812,0.4828,0.4881,0.4897,0.4906,0.4927,0.493,0.4979,0.4987,0.5015,0.5051,0.506,0.5064,0.5071,0.5141,0.5141,0.5141,0.5111,0.5109,0.5107,0,0,0,0,0,0.4733,0.4751,0.4763,0.4774,0.4842,0.4881,0.489,0.4923,0.4928,0.4937,0.4967,0.4986,0.5057,0.5054,0.5064,0.507,0.5141,0.5141,0.5141,0.5112,0.5109,0.5107,0,0,0,0,0,0,0.4701,0.4758,0.4772,0.4806,0.4838,0.4888,0.4902,0.4919,0.4951,0.4952,0.4991,0.5001,0.5029,0.5053,0.5048,0.5091,0.5101,0.5103,0.5075,0.5073,0.5071,0.5065,0.5074,0,0,0,0,0,0.4697,0.4725,0.4774,0.4799,0.4815,0.4855,0.4874,0.4895,0.493,0.4944,0.4976,0.5009,0.5038,0.5057,0.5087,0.5114,0.5124,0.5122,0.512,0.5119,0.512,0.5132,0.5131,0.5141,0.5141,0.5141,0,0,0.4691,0.4726,0.4742,0.4794,0.4821,0.4848,0.4866,0.4895,0.4914,0.4948,0.498,0.5004,0.5043,0.5071,0.5086,0.5092,0.5119,0.5119,0.5117,0.5119,0.5132,0.5131,0.513,0.5141,0.5141,0.5141,0,0,0.4693,0.4723,0.4746,0.4772,0.4813,0.4839,0.4844,0.489,0.4907,0.494,0.4965,0.4987,0.5039,0.5064,0.5083,0.5089,0.5106,0.5097,0.5087,0.5099,0.5098,0.5098,0.5097,0.5097,0.5098,0.5098,0.5098,0,0.468,0.4722,0.4755,0.4781,0.4802,0.4832,0.4854,0.4878,0.4926,0.4939,0.4945,0.5007,0.5035,0.5068,0.5069,0.5085,0.509,0.5092,0.5096,0.5095,0.5095,0.5095,0.5095,0.5097,0.5097,0.5097,0.5097,0,0.4702,0.4731,0.4744,0.4789,0.4811,0.4835,0.4869,0.4887,0.4906,0.493,0.496,0.4995,0.503,0.504,0.5059,0.5075,0.5077,0.5089,0.5099,0.5092,0.5093,0.5093,0.5095,0.5095,0.5096,0.5096,0,0,0.4689,0.4749,0.4753,0.4772,0.4817,0.4839,0.4862,0.4896,0.4909,0.494,0.4959,0.4999,0.5009,0.5031,0.5053,0.5063,0.5061,0.5074,0.5075,0.5068,0.5077,0.5067,0.5067,0.5073,0.5073,0.5073,0.5073,0,0.4696,0.474,0.4768,0.48,0.4825,0.4852,0.4871,0.49,0.4922,0.4945,0.497,0.4996,0.5009,0.5022,0.5033,0.5059,0.5064,0.506,0.5089,0.509,0.5078,0.5067,0.5058,0.5056,0.5074,0.5074,0.5074,0,0.4711,0.474,0.4774,0.4812,0.4823,0.4841,0.4872,0.4894,0.4925,0.4941,0.4962,0.4984,0.5007,0.5014,0.5045,0.5042,0.5055,0.5069,0.507,0.5073,0.5081,0.5069,0.5057,0.5056,0.5075,0.5075,0.5075,0,0.4695,0.4742,0.4767,0.4783,0.4829,0.484,0.4859,0.4891,0.4908,0.4935,0.4946,0.4975,0.4991,0.5012,0.5039,0.5043,0.5066,0.5077,0.5077,0.5076,0.5081,0.508,0.5069,0.5091,0.5091,0.5091,0.5091,0,0.4699,0.4719,0.476,0.4776,0.4797,0.4828,0.4847,0.4869,0.4895,0.4914,0.4939,0.4956,0.4991,0.5011,0.5032,0.5053,0.506,0.5071,0.5077,0.5069,0.5067,0.5078,0.5078,0.5091,0.5091,0.5091,0.5091,0,0.4686,0.4715,0.4744,0.4783,0.4793,0.4807,0.484,0.4855,0.4877,0.49,0.4907,0.4941,0.4966,0.4995,0.5029,0.5043,0.5061,0.507,0.505,0.5053,0.5051,0.505,0.5046,0.5046,0.5069,0.5069,0.5068,0,0.4686,0.4701,0.4741,0.4755,0.4774,0.4796,0.4813,0.4843,0.4859,0.4893,0.4903,0.4929,0.4952,0.4989,0.5016,0.5042,0.505,0.5047,0.5054,0.5044,0.5048,0.5046,0.5046,0.5045,0.5044,0.5044,0.5044,0,0.4683,0.4696,0.472,0.4747,0.4766,0.4789,0.4813,0.4822,0.4856,0.4873,0.4898,0.4915,0.4948,0.4973,0.5001,0.5019,0.5036,0.5041,0.5042,0.5034,0.5021,0.5025,0.5043,0.5041,0.5041,0.5041,0.5042,0.5042,0.4676,0.4689,0.4718,0.4742,0.4762,0.4783,0.4798,0.482,0.4842,0.4871,0.4886,0.491,0.4937,0.4976,0.4993,0.5011,0.5017,0.5019,0.502,0.5019,0.5016,0.5018,0.5016,0.5016,0.5016,0.5016,0.5017,0,0.4673,0.4691,0.4713,0.4745,0.4762,0.4776,0.4802,0.4816,0.4836,0.486,0.488,0.4907,0.4929,0.4957,0.4981,0.499,0.4997,0.4995,0.4994,0.4997,0.501,0.5006,0.4988,0.4988,0.4988,0.4988,0.4988,0.4988,0.4673,0.4694,0.4709,0.474,0.4758,0.4781,0.4794,0.4812,0.4831,0.4859,0.4878,0.4895,0.4919,0.4944,0.4965,0.4972,0.4979,0.4974,0.4983,0.4994,0.4997,0.4999,0.4995,0.4975,0.4975,0.4969,0.4968,0.4968]}]]